Content
SEND FEEDBACK

Daily
Averages
Monthly
Summary
Norway

NESODDTANGEN, NORWAY


Home > Europe > Norway
Elevation: 315 feet     Latitude: 59 54N     Longitude: 010 42E

WEATHER
 
SELECT A DAY
Number of Records: 288,857;   Date Range: 7/1/96 - 8/29/14
 
SHARE

PRINT THIS DATA

[ ← Previous Day ]
WEATHER ALMANAC - JANUARY 23, 2013
[ Next Day → ]
[ °C ]   °F
Weather ElementAverageHighLow
Dewpoint-4.3 °F5 °F (1:00 pm)-13 °F (1:12 am)
Humidity81.5 %92 % (6:11 pm)73 % (2:44 pm)
Barometer29.97 in29.98 in (12:42 am)29.95 in (5:10 am)
Wind Speed2.4 mph4.6 mph (10:40 am)
Weather ElementAverage
Visibility12.4 mi
Wind DirectionESE (118.2 °)

Weather ElementTotal
Precipitation---
Heating Degree Days64.5 (Base 65)
Averaged from 51 records on January 23, 2013
WEATHER CONDITIONS BREAKOUT
WIND DIRECTION BREAKOUT
WEATHER BY HOUR - JANUARY 23, 2013
[ °C ]   °F
Local TimeTemperatureDewpointHumidityBarometerVisibilityWind DirectionWind SpeedGust SpeedPrecipitationEventsConditions
12:42 AM-5.8 °F-9.4 °F84 %29.98 in6.2 miCalmPartly Cloudy
1:00 AM-4.0 °F-7.0 °F77 %19.0 miCalmPartly Cloudy
1:12 AM-7.6 °F-13.0 °F77 %29.98 in6.2 miNNE (30°)2.3 mphPartly Cloudy
1:45 AM-7.6 °F-11.2 °F84 %29.98 in6.2 miVariable2.3 mphPartly Cloudy
2:14 AM-7.6 °F-11.2 °F84 %29.98 in6.2 miNW (320°)1.2 mphPartly Cloudy
2:42 AM-7.6 °F-11.2 °F84 %29.98 in6.2 miNorth (350°)2.3 mphPartly Cloudy
3:12 AM-5.8 °F-11.2 °F77 %29.98 inVariable1.2 mphClear
3:41 AM-5.8 °F-11.2 °F77 %29.98 inNNE (20°)2.3 mphClear
4:11 AM-5.8 °F-11.2 °F77 %29.98 inNorth (350°)1.2 mphClear
4:40 AM-7.6 °F-11.2 °F84 %29.98 inNorth (10°)1.2 mphClear
5:10 AM-9.4 °F-13.0 °F84 %29.95 inNorth (350°)2.3 mphClear
5:40 AM-7.6 °F-13.0 °F77 %29.95 inCalmClear
6:10 AM-7.6 °F-11.2 °F84 %29.95 inVariable2.3 mphClear
6:40 AM-7.6 °F-13.0 °F77 %29.95 inNNW (330°)2.3 mphClear
7:00 AM-4.0 °F-8.0 °F74 %25.0 miNorth2.2 mphPartly Cloudy
7:11 AM-9.4 °F-13.0 °F84 %29.95 inNorth (350°)2.3 mphClear
7:52 AM-5.8 °F-11.2 °F77 %29.95 inCalmClear
8:13 AM-7.6 °F-13.0 °F77 %29.95 inNW (320°)1.2 mphClear
8:40 AM-5.8 °F-9.4 °F84 %29.98 inNNW (340°)2.3 mphClear
9:10 AM-5.8 °F-9.4 °F84 %29.98 inNNW (340°)3.5 mphClear
9:40 AM-2.2 °F-5.8 °F85 %29.98 inNorth (10°)3.5 mphClear
10:16 AM-2.2 °F-7.6 °F78 %29.98 inNNE (30°)3.5 mphClear
10:40 AM1.4 °F-2.2 °F85 %29.98 inNNE (20°)4.6 mphClear
11:12 AM1.4 °F-2.2 °F85 %29.98 in6.2 miNNE (30°)4.6 mphPartly Cloudy
11:44 AM5.0 °F-0.4 °F78 %29.98 in6.2 miNNE (20°)4.6 mphPartly Cloudy
12:10 PM6.8 °F1.4 °F79 %29.98 in6.2 miVariable2.3 mphPartly Cloudy
12:43 PM8.6 °F3.2 °F79 %29.98 in6.2 miNE (40°)4.6 mphPartly Cloudy
1:00 PM9.0 °F5.0 °F78 %31.0 miNNE (30°)4.5 mphPartly Cloudy
1:12 PM8.6 °F3.2 °F79 %29.98 inNE (40°)4.6 mphClear
1:43 PM8.6 °F3.2 °F79 %29.98 inNNE (30°)3.5 mphClear
2:13 PM10.4 °F5.0 °F79 %29.98 inNE (50°)3.5 mphClear
2:44 PM8.6 °F1.4 °F73 %29.98 inNNE (30°)2.3 mphClear
3:10 PM10.4 °F3.2 °F73 %29.98 inSW (230°)1.2 mphClear
3:40 PM10.4 °F3.2 °F73 %29.95 inNNE (20°)2.3 mphClear
4:13 PM6.8 °F1.4 °F79 %29.95 inENE (60°)2.3 mphClear
4:41 PM5.0 °F1.4 °F85 %29.98 inCalmClear
5:12 PM5.0 °F1.4 °F85 %29.98 inNorth (10°)3.5 mphClear
5:42 PM1.4 °F-2.2 °F85 %29.98 inVariable1.2 mphClear
6:11 PM1.4 °F-0.4 °F92 %29.98 inCalmClear
6:40 PM3.2 °F-0.4 °F85 %29.98 inVariable2.3 mphClear
7:00 PM4.0 °F0.0 °F78 %37.0 miNorth4.5 mphPartly Cloudy
7:10 PM1.4 °F-2.2 °F85 %29.98 inNorth (360°)2.3 mphClear
7:40 PM3.2 °F1.4 °F92 %29.98 inNNE (20°)4.6 mphClear
8:10 PM1.4 °F-2.2 °F85 %29.98 inNorth (10°)3.5 mphClear
8:40 PM1.4 °F-2.2 °F85 %29.98 inNorth (350°)2.3 mphClear
9:10 PM-0.4 °F-4.0 °F85 %29.98 inNorth (360°)3.5 mphClear
9:40 PM1.4 °F-2.2 °F85 %29.98 inNNW (340°)2.3 mphClear
10:10 PM3.2 °F-0.4 °F85 %29.98 inVariable2.3 mphClear
10:40 PM3.2 °F-0.4 °F85 %29.98 inNorth (350°)2.3 mphClear
11:10 PM5.0 °F1.4 °F85 %29.98 in6.2 miNorth (360°)2.3 mphScattered Clouds
11:40 PM6.8 °F3.2 °F85 %29.98 inVariable2.3 mphClear
Hourly data recorded from ENGM, located miles away from Nesoddtangen, Norway







STORIES FROM OUR PARTNERS